Theta_e
317 316 317 316 316 316 318 320 326 332 329 332 335 334 332 330 331 330 329 329 329 328 326 328 330 332 334 332 336 336 333 341 344 342 344 336 329 331 332 335 338 338 340 342 344 346 346 341 335 332 329 328 328 328 329 329 330 331 331 331 331 331 330 330 331 331 333 333 332 332 330 329 328 327 325 324 320 320 325 326 331 333 332 333 332 332 330 329 329 331 335 336 337 338 338 336 335
316 314 315 316 317 316 319 320 329 337 332 334 334 335 334 328 331 331 330 331 330 329 326 327 329 332 332 330 331 329 328 332 333 334 334 329 328 331 332 337 338 338 339 340 343 343 344 343 338 334 330 328 329 328 327 327 328 330 331 331 331 331 330 330 331 332 333 333 333 332 329 329 327 326 324 321 316 317 328 330 332 333 332 331 329 328 327 329 331 335 337 338 338 338 337 335 334
314 313 315 315 316 315 321 322 328 333 328 330 331 333 330 327 333 333 329 329 327 327 328 329 329 332 331 331 331 329 328 330 330 330 329 326 327 329 332 335 335 338 340 340 342 342 343 343 340 336 330 328 328 327 326 326 328 329 331 331 331 331 330 331 332 333 333 333 333 331 329 328 327 326 324 319 314 317 327 330 330 330 329 328 327 328 331 333 336 338 338 338 338 337 334 332 327
312 313 315 316 316 318 328 329 331 329 324 328 328 329 331 331 332 328 327 325 325 326 329 330 330 331 330 332 332 329 326 328 329 328 327 326 327 328 330 331 333 335 337 340 342 343 343 342 340 335 329 329 329 327 326 326 327 329 331 331 331 331 331 331 331 332 332 333 332 331 329 328 326 326 323 317 316 318 322 324 325 326 327 329 331 333 335 337 338 338 338 338 337 334 329 324 318
312 315 315 317 317 319 326 325 329 327 324 332 329 326 331 331 330 328 325 324 325 327 329 329 330 330 329 331 331 328 326 327 327 326 327 325 327 328 328 329 331 332 335 338 340 342 342 342 341 335 329 329 329 327 327 326 327 329 330 331 331 331 331 330 331 331 332 332 331 330 328 327 327 327 323 317 317 319 320 322 322 324 328 331 333 334 336 337 338 338 338 337 335 329 324 320 315
313 316 316 318 318 317 322 320 324 326 323 329 329 327 327 325 326 325 324 324 325 327 329 329 329 330 330 330 330 328 326 326 326 326 326 325 327 327 328 328 329 331 332 336 339 340 340 340 340 337 331 329 329 327 327 327 328 329 330 330 330 330 329 328 329 329 330 331 330 329 328 327 327 328 325 320 319 317 316 318 320 325 331 332 333 335 336 337 337 338 337 335 331 326 322 318 315
315 317 316 318 318 317 324 324 322 325 323 323 326 327 324 322 320 322 324 325 327 327 329 328 328 330 330 330 330 328 326 326 325 326 326 325 327 326 328 327 329 331 332 334 338 340 340 340 339 336 331 330 329 328 327 326 327 328 329 328 327 326 325 325 325 327 328 328 329 328 327 327 328 329 328 325 323 320 316 314 318 326 331 333 334 335 337 338 337 337 335 334 331 326 322 318 316
316 318 316 320 322 320 324 324 322 323 322 320 322 324 323 321 318 322 326 324 327 328 329 328 326 331 332 329 330 327 326 327 325 327 326 326 327 326 327 326 328 329 331 333 336 339 339 339 338 334 331 331 330 329 327 326 326 326 326 325 323 323 321 322 323 325 326 326 327 326 327 327 327 328 329 328 325 323 319 314 315 323 329 332 334 335 336 337 337 336 334 334 331 325 322 318 317
319 320 318 320 323 322 323 321 320 320 322 320 319 320 319 320 319 322 324 324 326 327 327 328 327 330 332 329 329 326 326 327 326 327 326 326 327 326 327 326 327 326 329 332 334 337 338 338 337 333 331 331 330 329 327 326 326 325 325 324 322 321 321 321 322 324 323 324 325 326 326 325 326 329 330 328 325 321 319 317 313 317 324 329 333 335 336 337 337 335 334 334 331 325 322 319 318
320 319 319 321 322 321 321 318 318 320 322 321 318 318 317 318 320 320 322 324 325 326 327 327 328 328 328 330 329 325 326 327 326 327 327 327 327 327 327 327 328 326 327 329 332 335 337 337 336 333 331 331 331 329 327 326 326 325 324 323 322 321 322 321 322 323 322 323 325 325 325 325 327 330 330 329 326 320 318 318 314 314 318 323 330 334 335 336 336 334 334 334 330 325 322 320 319
320 318 318 324 323 319 319 317 317 319 319 318 317 318 317 316 318 320 321 324 325 325 326 327 328 326 326 330 328 324 326 326 326 326 327 328 327 327 327 327 328 327 327 327 329 333 335 336 335 334 332 332 331 329 328 327 326 325 324 323 322 323 322 322 322 324 323 324 324 324 324 325 329 331 331 332 328 321 318 318 315 315 317 319 325 330 333 335 335 335 334 333 331 327 321 320 322
320 318 321 325 322 318 319 318 317 320 323 322 320 318 318 317 321 326 323 323 324 325 326 327 330 327 330 333 328 324 325 325 326 327 328 328 328 327 327 328 328 328 328 327 327 330 332 335 335 334 333 333 331 329 328 327 326 326 325 324 324 324 323 322 323 324 325 324 324 325 325 327 331 332 332 333 329 322 319 319 317 317 318 319 321 324 329 333 334 334 334 332 332 330 323 321 324
319 319 322 322 319 321 320 319 320 324 327 323 319 318 318 320 323 326 323 323 323 326 328 327 329 326 330 335 328 323 324 325 326 327 329 328 329 328 327 328 328 329 329 329 327 327 330 332 334 334 334 333 331 330 328 327 326 326 326 325 325 325 325 324 323 324 326 324 324 324 323 328 333 333 333 334 331 323 320 320 320 320 320 320 320 320 324 328 332 333 334 332 331 330 324 321 323
319 318 320 320 319 321 319 319 321 320 323 321 319 318 318 319 321 323 322 324 324 326 328 327 328 326 329 334 329 324 323 324 326 327 329 330 330 329 327 329 329 329 330 331 330 329 329 330 333 335 335 334 332 330 329 329 328 326 326 326 325 326 326 325 323 324 326 326 324 321 319 326 333 334 334 334 332 325 321 321 320 319 320 320 320 320 320 323 328 331 332 331 329 330 326 322 321
319 318 320 321 320 320 318 319 319 316 321 322 319 318 318 319 319 319 320 325 325 325 326 327 328 327 330 333 329 324 322 324 325 326 328 330 332 330 328 328 329 331 331 333 332 331 330 331 334 335 336 335 334 332 330 330 331 331 328 326 326 326 326 326 325 324 326 327 325 322 319 326 333 334 335 334 334 329 322 321 320 318 319 322 321 320 319 318 325 330 330 330 328 328 328 323 320
318 318 320 322 319 318 318 319 319 318 322 322 318 319 318 319 319 318 320 321 322 323 325 326 327 328 328 329 327 324 323 324 324 326 329 329 332 331 329 328 330 333 333 334 334 333 332 332 334 336 337 336 336 335 332 330 331 334 332 330 327 327 326 326 326 325 327 328 328 327 323 327 333 333 335 335 334 332 327 322 320 319 320 324 322 321 319 314 321 328 327 329 328 327 328 323 320
318 318 321 322 319 318 321 322 320 319 321 321 318 317 318 319 320 319 320 320 319 322 324 326 327 327 328 327 327 325 323 323 324 326 328 330 332 331 329 328 329 333 335 336 336 335 334 334 335 336 337 338 338 336 335 331 330 333 333 331 330 329 328 327 326 326 328 329 330 332 326 326 330 333 335 335 334 334 331 327 323 322 322 324 323 321 319 314 320 327 325 326 327 326 325 322 320
318 319 319 320 321 319 324 325 321 319 320 320 318 318 318 319 320 319 320 321 321 322 322 324 327 326 328 328 327 327 324 323 324 324 327 330 331 331 329 329 330 333 337 339 339 338 337 336 337 337 338 338 339 338 337 334 331 332 332 329 329 330 331 330 328 326 328 329 331 333 329 326 325 329 334 335 335 334 333 331 328 326 324 324 323 321 320 316 318 324 324 324 324 324 323 321 320
319 321 319 322 325 320 319 321 318 318 319 317 317 317 317 319 319 319 320 320 321 327 326 324 327 327 326 327 326 327 325 323 323 324 324 327 328 330 328 328 329 332 337 340 342 341 340 339 339 339 339 339 338 339 339 337 333 331 331 328 327 329 331 331 329 327 328 329 330 331 331 328 323 325 332 335 335 335 334 333 331 330 327 326 325 322 320 318 318 322 323 322 321 322 321 320 319
317 317 320 325 324 319 316 317 316 317 317 315 316 317 317 318 318 319 320 318 320 327 329 326 327 327 325 327 326 326 327 325 324 323 323 324 326 327 327 328 328 332 338 341 342 342 342 342 341 341 341 340 339 339 339 339 336 333 332 330 328 328 329 330 329 328 328 329 330 330 330 329 325 325 330 334 335 336 335 334 333 333 332 329 327 325 321 318 319 321 322 320 321 321 320 319 319
316 317 322 322 318 317 317 317 318 317 317 316 316 317 317 318 319 318 318 319 321 322 322 324 325 324 324 326 325 327 327 326 325 324 323 324 325 326 327 328 328 334 339 341 341 342 342 342 343 342 342 341 339 339 339 340 338 336 333 332 330 328 328 329 329 329 328 328 329 329 329 329 328 327 328 331 333 335 335 335 334 333 332 330 328 326 323 319 318 319 320 320 321 322 320 319 319
316 316 318 317 315 317 318 317 318 318 317 316 316 317 319 318 318 318 318 320 324 322 320 321 322 322 324 325 325 326 326 326 326 324 323 324 326 327 328 329 330 336 340 340 339 341 343 343 343 343 344 343 341 339 339 341 340 338 336 334 332 330 329 328 329 330 329 329 329 329 329 329 329 329 328 329 330 331 333 334 334 333 332 330 328 326 323 322 320 318 319 321 322 322 321 319 318
317 317 315 316 317 316 318 318 318 317 316 315 315 317 318 317 318 319 318 319 322 322 321 321 320 321 323 324 325 326 326 325 325 328 329 330 332 332 330 331 332 337 340 340 340 342 343 343 343 344 344 343 342 340 339 341 342 340 337 335 333 332 331 330 329 329 330 331 330 330 330 329 330 330 329 329 328 328 329 331 332 333 333 331 330 327 324 323 322 320 319 320 321 323 322 320 318
317 318 316 316 317 316 318 318 318 317 315 315 316 317 316 317 320 319 318 321 321 321 322 322 321 321 321 323 325 325 326 323 327 335 335 335 336 335 333 333 334 337 340 342 343 343 343 344 344 344 344 343 342 341 339 339 341 340 339 337 335 333 332 332 331 330 331 332 332 332 331 331 331 331 331 330 330 328 328 329 330 332 333 333 331 331 329 326 324 323 321 319 320 322 322 321 319
318 319 317 317 318 317 319 318 318 318 316 317 316 315 316 318 319 318 320 321 321 320 321 321 321 321 320 322 324 324 325 324 330 336 335 335 335 335 335 334 334 335 338 340 340 338 338 339 339 342 344 343 343 342 340 340 339 339 339 338 336 335 334 333 333 332 331 332 333 332 332 332 332 332 332 331 331 330 329 329 330 331 332 334 333 332 332 331 329 326 324 321 319 320 321 322 321
318 318 317 317 318 318 319 319 319 319 318 317 317 317 318 318 319 321 322 320 322 322 322 323 322 321 321 323 325 328 331 333 338 338 334 334 335 336 337 335 334 334 335 334 331 331 330 329 331 334 337 340 342 341 338 338 340 339 339 338 337 336 335 334 334 333 332 332 333 333 333 333 333 333 333 332 332 331 330 330 330 331 332 333 333 333 333 332 332 330 328 325 322 319 319 319 320
318 317 318 317 317 318 319 319 319 319 319 317 319 322 318 317 319 324 324 320 321 323 322 321 321 324 328 333 337 340 341 342 344 341 334 333 336 340 339 335 334 334 335 330 326 327 326 327 331 335 337 338 338 334 329 330 335 337 338 339 339 338 337 336 335 335 333 333 333 334 334 334 334 334 333 333 333 332 331 331 331 331 332 333 334 334 333 333 333 333 331 330 328 323 319 318 318
319 317 318 318 318 319 319 319 318 320 320 318 318 320 319 318 320 321 320 321 323 322 323 323 327 333 338 342 344 344 345 345 345 341 334 332 336 340 338 335 335 336 337 332 328 327 329 333 337 340 342 342 339 332 327 327 328 333 336 337 338 339 339 338 337 337 336 335 335 335 335 335 335 335 334 334 334 333 333 332 331 331 331 332 333 333 334 334 334 333 332 331 331 327 320 318 316
319 318 320 321 321 323 321 319 319 320 321 319 316 321 326 324 320 319 319 322 321 321 324 330 337 342 344 346 346 346 346 345 345 340 334 334 335 337 336 337 337 338 338 334 330 331 336 339 339 341 342 342 342 337 332 329 328 332 336 337 338 338 339 340 339 339 338 337 337 336 336 336 336 336 335 335 334 334 333 333 332 332 331 331 332 332 333 334 334 334 334 332 333 329 321 319 319
319 317 319 323 323 325 321 318 320 320 320 319 317 320 328 327 318 316 322 323 326 332 335 339 344 346 346 348 347 346 347 345 345 341 337 337 337 336 337 337 338 339 339 336 334 334 336 340 340 340 340 341 341 340 339 335 333 331 332 336 338 338 339 340 340 340 340 339 338 338 338 337 336 336 336 336 335 334 333 333 333 332 332 332 331 331 332 332 333 333 334 333 333 330 324 323 324
322 320 321 324 321 322 322 319 320 322 321 321 321 320 324 326 317 318 329 332 336 341 342 344 345 346 346 346 346 346 347 346 345 342 340 338 337 336 338 339 340 341 339 339 340 338 337 339 340 341 341 341 340 340 341 340 338 335 335 336 337 339 339 339 340 340 340 340 339 339 339 338 337 337 336 336 336 335 335 334 333 333 333 332 332 331 331 332 332 332 333 333 333 332 328 326 326
325 322 324 325 320 321 323 320 318 321 321 320 323 322 323 322 318 325 336 338 340 340 341 343 343 344 344 344 345 346 347 348 347 344 342 341 341 342 343 343 343 343 341 341 343 341 341 341 340 340 341 341 341 341 341 342 341 340 339 339 338 340 339 339 340 340 340 340 339 338 338 338 337 337 337 337 336 336 335 334 333 333 333 332 333 332 332 332 332 332 332 333 333 332 332 330 328
330 323 321 322 321 320 323 321 317 318 320 320 319 321 322 320 320 329 335 336 339 339 339 341 342 342 342 342 343 344 346 348 349 348 346 346 348 348 348 347 346 344 343 343 343 341 342 342 341 341 340 340 341 342 342 342 342 341 341 341 340 341 339 338 339 340 340 340 339 339 338 338 337 337 337 337 337 336 335 334 333 333 332 332 332 332 331 331 331 332 332 333 333 333 333 332 331
331 327 322 321 321 318 320 322 318 316 319 321 320 322 322 322 324 330 333 336 338 339 340 340 340 340 340 341 341 342 343 344 347 348 349 348 349 348 348 347 345 344 345 344 343 342 342 342 342 342 341 341 341 341 341 342 342 341 340 341 341 341 340 338 338 339 339 340 340 339 339 338 337 337 336 336 335 335 335 335 334 334 333 332 331 331 330 329 329 330 331 332 333 333 333 332 331
324 324 324 321 321 320 320 323 321 317 321 323 324 326 326 326 328 332 335 338 338 339 339 338 337 337 337 339 339 340 341 341 342 344 346 346 345 345 345 345 344 343 343 342 340 339 339 338 339 340 340 340 340 340 341 341 341 339 339 341 341 341 341 341 339 338 338 339 340 340 340 339 339 337 335 334 333 333 333 334 334 333 333 333 332 331 330 328 327 328 329 331 333 333 333 333 331
323 321 321 320 319 321 321 322 322 318 322 327 328 329 329 330 332 335 339 339 338 337 335 334 333 334 335 337 337 338 339 339 340 342 342 342 342 342 342 342 341 340 339 339 337 336 335 335 335 337 339 339 340 340 340 340 340 339 338 339 340 341 341 341 341 340 339 338 338 339 340 340 340 339 336 335 333 331 331 331 332 332 332 332 331 332 331 328 326 326 327 329 331 332 332 333 331
322 321 321 320 319 321 321 322 322 318 322 327 330 333 334 335 336 337 338 336 334 332 331 331 331 332 333 335 335 336 337 337 339 340 340 340 340 339 339 338 338 337 337 337 336 334 334 334 334 336 338 339 340 340 340 341 341 341 340 338 338 339 340 340 339 339 338 337 339 339 339 339 340 340 338 336 334 333 332 332 332 332 332 331 331 331 331 329 326 326 327 327 329 331 332 333 333
320 320 321 320 320 323 322 321 319 318 325 326 331 338 339 339 337 335 334 332 331 330 329 330 329 331 332 332 334 334 334 334 336 337 337 337 337 336 335 334 334 334 334 333 333 332 334 334 334 335 336 337 338 339 339 340 340 340 340 339 338 338 338 338 338 337 336 335 338 338 338 339 340 340 339 338 336 335 334 334 333 333 333 331 329 329 331 330 328 328 328 328 329 330 331 333 334
321 320 321 321 322 323 322 323 319 318 326 328 330 336 338 337 335 332 332 330 330 330 328 328 329 329 330 331 332 331 331 331 332 332 332 332 332 331 331 330 330 330 330 330 329 330 331 331 332 334 335 336 336 337 337 337 337 337 338 338 338 337 336 336 337 337 335 334 335 337 339 340 340 339 339 338 338 337 336 336 335 335 333 332 329 327 328 329 329 329 329 329 330 329 330 331 333
322 322 322 322 322 320 320 322 319 318 325 328 328 331 331 333 334 331 332 331 329 328 326 326 327 327 328 329 330 329 328 327 327 328 328 328 328 328 327 327 326 326 326 325 325 325 326 326 327 328 330 331 332 333 334 334 335 336 336 337 336 337 336 335 335 334 335 336 336 337 339 339 340 339 339 338 338 338 337 336 336 335 335 333 332 329 328 329 330 330 330 330 330 329 328 330 332
325 324 322 322 322 320 319 320 320 320 323 324 329 333 328 330 335 333 332 330 327 325 324 324 325 325 327 328 328 326 323 321 322 324 325 326 325 325 325 325 325 324 324 323 323 323 323 323 323 323 323 324 325 325 326 328 329 331 332 333 334 334 335 335 335 334 334 336 337 337 336 336 337 337 338 337 337 338 338 337 336 335 335 335 333 332 329 329 330 330 330 330 329 328 328 329 331
324 324 323 321 322 322 320 321 322 324 322 318 327 338 331 328 336 337 332 328 324 322 321 321 323 324 325 324 322 320 318 316 317 319 320 320 320 320 321 321 321 321 320 319 319 319 319 319 318 318 318 318 319 319 319 320 321 322 324 326 328 330 332 332 333 333 333 334 334 334 334 334 334 334 335 335 336 336 337 337 336 335 335 335 334 333 331 330 329 329 330 330 329 328 327 328 330
322 321 322 322 321 321 320 320 321 323 322 316 321 337 335 329 335 337 331 326 322 321 320 319 321 321 320 318 315 314 313 313 314 315 316 317 318 318 318 317 317 317 315 314 315 315 314 314 313 313 313 313 314 314 315 316 316 317 318 319 322 325 328 328 328 329 330 331 332 333 333 333 332 331 331 332 333 334 335 336 336 335 335 335 335 334 332 332 331 329 330 331 331 329 328 327 328
322 321 320 320 319 317 319 318 318 320 321 320 320 331 338 333 334 335 330 326 322 321 320 319 319 319 317 315 312 310 310 310 311 312 314 315 315 316 315 315 315 313 312 312 311 311 310 310 309 309 309 309 310 311 312 313 314 316 316 317 319 322 324 324 324 324 326 328 329 330 331 332 332 332 332 331 332 332 334 335 336 336 335 335 335 335 334 333 332 331 329 329 331 330 328 326 326
323 323 317 317 318 319 319 317 322 323 320 322 322 327 336 332 332 335 331 327 324 321 320 319 318 317 315 314 311 309 309 309 310 310 311 312 312 313 312 311 311 310 310 309 309 308 308 307 307 307 307 307 307 308 308 310 311 315 317 318 319 319 320 320 320 320 321 323 324 325 327 329 330 331 332 333 333 333 333 333 333 333 334 335 336 336 336 335 334 332 330 329 330 330 329 326 325
321 319 316 318 320 324 325 319 326 326 320 323 322 327 340 335 331 334 331 328 326 321 321 319 317 317 315 313 311 309 309 309 309 309 310 310 310 310 309 309 308 308 308 308 308 307 307 307 307 306 306 306 306 306 306 307 308 312 314 315 316 316 316 317 317 317 317 318 319 320 322 325 327 328 330 331 332 333 333 333 333 332 332 333 335 336 337 336 336 334 332 331 331 331 330 328 327
316 318 319 319 320 328 335 333 329 322 323 331 324 325 338 335 331 333 330 329 326 320 320 319 317 317 315 313 311 309 309 309 309 309 309 310 309 309 309 308 307 307 307 307 307 307 306 306 306 305 305 305 305 305 305 305 306 307 307 308 309 309 310 311 313 314 315 315 315 316 316 319 322 325 328 329 330 331 332 332 333 333 333 331 332 335 336 337 336 335 334 333 333 332 331 331 329
317 325 322 317 322 325 330 333 326 320 327 333 326 322 326 329 333 333 328 327 323 319 320 318 317 316 315 313 311 310 309 309 309 309 309 309 309 309 308 307 307 307 307 306 306 306 305 305 305 305 304 303 303 303 303 303 303 303 303 303 303 303 303 304 305 307 309 310 310 311 311 312 315 319 323 327 328 330 331 331 332 333 334 333 332 332 335 336 336 337 336 334 333 333 332 331 331
320 329 327 322 325 322 325 331 323 322 328 325 323 321 318 327 336 331 327 325 321 319 318 317 316 315 315 313 311 310 309 309 309 309 309 308 308 308 307 307 307 307 306 306 306 305 305 305 305 305 303 303 303 303 303 302 302 302 302 302 302 302 302 302 302 302 303 304 304 305 305 306 307 309 314 319 323 326 329 331 331 331 333 334 334 332 333 334 335 335 336 336 335 333 333 332 331
319 327 327 325 327 319 324 332 320 318 324 319 319 317 317 331 332 324 324 322 318 318 315 315 315 313 313 312 311 311 309 309 308 308 308 308 308 308 307 307 307 306 306 306 306 305 305 306 305 304 304 304 304 304 304 303 303 302 302 302 302 302 302 302 303 302 302 302 302 302 302 302 303 303 305 310 315 320 324 327 330 331 331 332 333 334 333 333 333 333 335 335 336 335 334 333 332
318 321 319 321 328 320 321 329 322 318 323 321 318 316 324 336 327 319 320 318 317 317 315 314 314 312 312 311 311 311 309 308 308 308 308 307 308 307 307 307 307 306 306 305 305 305 305 305 304 305 305 305 305 304 304 304 303 303 303 303 303 303 303 303 303 303 303 303 303 302 302 302 302 302 301 303 306 312 317 321 325 329 331 331 332 333 334 333 333 333 334 334 335 336 335 334 333
317 317 317 320 327 323 320 324 324 321 323 326 322 320 328 331 322 317 317 316 316 316 314 314 313 312 312 311 311 310 309 308 308 307 308 307 307 307 307 307 306 306 305 305 305 305 305 304 304 305 305 304 305 305 304 304 304 304 304 304 304 304 304 304 304 304 304 304 304 303 303 303 302 302 302 301 301 304 309 314 318 323 328 331 331 332 333 334 333 333 334 333 334 336 336 335 334
320 315 318 319 317 320 321 320 322 320 320 325 323 324 331 327 321 319 318 318 318 316 314 314 313 312 312 311 311 309 309 308 308 308 307 307 307 307 307 307 306 306 305 305 305 304 304 304 304 304 304 304 304 304 304 305 304 304 304 304 304 304 304 304 304 304 304 304 304 304 304 304 303 303 303 302 301 301 302 306 310 316 321 326 330 331 332 333 334 333 334 334 335 335 335 336 335
322 319 320 318 314 321 323 319 324 324 321 324 322 324 333 330 324 322 318 319 319 317 315 314 313 313 312 311 310 309 309 308 308 308 307 307 307 307 307 306 306 306 305 305 305 305 304 304 304 304 304 304 304 304 304 304 304 304 304 304 304 304 304 304 304 304 304 304 304 304 304 304 304 303 303 303 303 302 300 301 303 308 313 319 325 329 331 332 333 334 333 333 334 335 335 336 335
316 316 317 317 316 323 324 319 323 323 320 325 325 323 326 328 327 323 319 319 318 317 316 315 313 312 311 312 310 309 309 308 308 308 307 307 307 307 307 306 306 306 305 305 305 305 305 304 304 304 304 304 304 304 304 304 304 304 304 304 304 304 304 304 304 304 304 305 304 304 305 304 304 304 304 303 303 303 302 301 301 302 307 312 318 325 329 331 332 333 333 333 334 335 335 335 335
316 316 317 319 322 323 321 320 322 323 323 327 327 323 324 327 328 325 320 318 317 316 316 315 313 312 312 312 310 309 308 307 308 308 308 307 307 307 306 305 306 305 305 305 305 305 305 304 304 304 304 304 304 304 304 304 304 304 304 304 304 305 305 305 305 305 305 305 305 305 305 305 305 304 304 304 303 303 303 302 301 301 302 307 312 318 324 329 331 332 333 333 334 335 335 335 334
319 322 320 321 323 320 317 317 319 323 326 328 326 325 331 333 327 324 322 318 316 316 315 314 311 311 312 311 310 309 307 307 307 307 307 307 308 307 306 305 306 305 305 306 305 305 305 305 305 304 304 304 304 304 304 304 305 305 305 305 305 305 305 305 305 305 305 305 305 305 304 304 305 304 304 304 304 304 303 303 301 300 300 303 309 313 318 324 329 330 332 333 333 334 335 335 335
320 322 321 320 322 320 319 320 323 323 323 328 326 323 330 329 320 321 322 318 316 315 313 313 312 312 312 311 310 309 307 307 307 306 307 307 307 308 307 306 305 305 305 305 305 305 305 305 305 304 304 304 304 304 305 305 305 305 305 305 305 305 305 305 305 305 305 305 305 305 304 304 304 304 304 304 304 303 303 303 302 301 300 301 305 311 314 319 324 328 331 332 333 334 334 335 336
Wind_Speed
10 10 10 9 11 11 8 4 0 2 2 0 2 1 4 5 2 3 4 3 2 3 8 6 4 15 7 2 9 7 4 5 6 4 1 3 5 7 9 9 9 11 12 12 12 13 13 14 16 17 16 16 15 15 14 14 14 14 13 13 12 11 10 9 8 8 7 6 5 4 3 3 3 3 3 3 3 3 4 5 5 6 7 8 9 9 9 8 8 8 8 8 7 8 10 10 9
10 9 9 8 10 9 5 3 1 3 4 2 3 3 3 3 1 5 6 4 3 2 5 8 7 16 8 4 7 4 3 5 7 5 2 4 6 7 9 9 9 10 12 13 12 12 12 14 15 16 15 14 13 13 13 13 13 13 13 12 12 11 10 9 8 7 6 6 4 3 3 3 3 3 3 2 2 3 5 6 6 6 7 8 9 8 8 8 8 8 8 8 9 10 10 10 9
9 7 7 7 7 6 3 3 1 1 4 3 4 3 2 2 4 6 7 9 6 3 3 9 8 12 7 1 4 3 2 5 7 6 3 6 6 8 10 9 9 9 11 12 12 13 13 15 16 16 15 14 12 12 12 12 12 12 12 11 11 10 10 9 7 7 6 5 4 2 3 3 2 2 2 1 1 3 6 7 7 6 7 8 8 9 8 8 8 8 9 10 11 11 10 8 7
7 5 6 6 4 3 3 3 1 3 1 2 3 5 3 4 7 6 8 11 8 3 5 9 5 8 8 3 3 3 3 4 7 6 5 7 7 9 10 9 10 9 10 10 12 13 13 16 17 16 15 14 12 11 11 11 12 12 12 12 11 11 10 9 8 7 6 5 3 3 2 2 1 1 1 1 0 2 5 6 6 7 8 8 9 9 8 7 8 9 11 11 10 10 8 6 5
5 5 6 5 2 1 3 2 1 3 2 3 2 6 5 6 7 6 9 10 6 4 9 9 3 6 8 6 4 1 2 4 5 6 6 7 8 9 9 9 10 10 10 10 11 12 13 15 16 16 15 14 12 11 11 11 12 12 12 12 12 11 10 9 9 7 6 5 4 3 2 1 1 2 2 1 1 2 3 4 6 8 8 8 8 8 7 7 9 11 11 11 10 9 7 6 5
5 6 5 4 2 1 3 1 1 1 4 5 3 7 7 7 7 6 9 10 4 7 11 7 2 4 4 5 5 3 3 4 5 7 6 7 8 9 8 8 9 10 11 11 12 12 12 14 16 16 16 14 13 12 12 12 12 13 13 12 12 11 10 9 9 7 6 6 5 4 3 2 2 3 2 1 1 2 1 3 6 8 9 8 7 7 7 8 10 11 10 9 8 8 6 5 6
6 5 4 2 2 2 3 2 4 4 5 6 5 7 8 8 7 5 7 5 1 7 10 7 3 2 3 3 4 6 6 4 6 8 7 8 8 8 8 7 9 10 10 11 12 13 13 15 17 17 16 15 13 13 12 12 12 13 12 11 11 11 10 9 8 7 6 6 5 5 3 2 2 3 2 2 2 2 2 1 5 8 10 8 7 7 6 7 10 10 9 8 7 7 6 5 6
8 6 3 2 1 3 3 1 4 4 4 5 5 8 11 13 9 3 2 1 2 5 10 11 6 2 3 4 3 7 9 6 8 8 8 9 9 9 8 8 8 9 10 10 12 13 14 15 17 17 16 15 13 13 12 12 12 12 11 10 10 9 8 7 7 7 6 6 6 5 3 2 3 3 2 2 2 2 1 1 2 7 10 9 8 7 6 8 9 9 9 8 6 5 5 5 6
9 6 2 3 1 3 1 3 4 4 5 5 6 12 17 17 11 5 2 2 4 5 9 12 9 4 3 5 6 8 11 8 9 9 10 9 9 9 8 9 8 8 10 10 12 13 14 15 17 17 16 15 14 13 12 12 11 11 11 10 9 8 7 7 6 6 6 6 6 5 3 3 3 3 2 3 3 3 1 2 1 3 8 10 9 7 6 7 8 9 9 8 6 5 4 5 6
7 5 1 2 2 5 4 3 4 3 5 6 7 14 16 13 9 9 6 4 7 7 9 11 9 8 4 4 7 8 13 11 10 10 10 9 9 9 8 10 8 8 8 10 12 12 13 14 16 16 16 15 14 13 13 13 12 12 11 10 9 8 7 7 7 6 6 6 5 4 3 4 5 4 2 3 4 4 2 1 2 2 4 8 9 8 8 7 7 9 9 8 6 6 6 5 6
5 3 1 3 4 5 3 5 7 6 6 5 6 9 10 7 5 6 7 5 9 8 8 9 7 11 5 4 9 10 14 13 12 11 9 9 10 10 9 10 10 9 8 8 10 11 13 14 16 16 15 14 14 14 13 13 13 12 11 10 9 8 7 7 7 7 6 6 5 5 4 5 5 4 3 3 4 4 3 0 2 4 4 6 8 8 8 8 8 10 9 8 7 6 7 6 6
3 1 3 3 2 1 2 4 7 8 9 5 2 3 7 3 5 4 7 5 8 7 9 12 8 12 5 3 10 13 15 15 13 12 10 10 10 11 11 11 11 11 10 9 9 11 12 13 15 16 15 14 13 13 13 13 12 12 11 9 8 8 7 7 7 6 6 6 5 5 5 6 5 4 3 2 3 4 3 0 2 4 5 5 6 7 8 9 9 9 9 9 8 7 7 7 7
0 2 4 1 2 2 2 4 5 6 7 4 3 1 4 3 6 8 11 6 5 5 11 20 13 11 6 3 9 15 16 16 15 14 12 11 10 12 12 12 12 12 12 10 10 10 11 12 14 15 15 14 13 13 12 12 12 11 10 10 9 8 7 7 6 6 6 5 5 4 4 6 5 4 2 1 3 4 3 1 2 3 5 5 6 6 6 8 9 10 9 10 10 9 8 8 8
1 4 3 1 1 1 2 3 4 4 5 5 6 5 3 3 7 12 11 6 9 11 13 21 19 9 6 4 7 16 17 16 17 16 14 12 11 11 12 13 12 12 12 11 10 10 10 11 12 14 15 14 13 13 12 12 11 11 10 10 9 8 8 7 6 6 6 5 4 3 4 5 5 4 2 1 2 3 2 1 2 3 4 5 5 6 6 6 9 10 9 10 11 10 9 8 8
2 2 3 1 2 3 1 3 3 2 5 5 9 13 11 4 4 11 9 5 11 16 10 13 21 8 5 9 7 14 18 17 18 17 16 13 12 11 12 13 13 13 12 11 10 9 9 9 11 12 14 14 13 12 12 11 10 10 10 9 9 8 7 7 6 6 6 6 5 4 5 5 4 4 3 1 0 2 2 1 1 2 3 4 4 4 5 6 9 9 10 11 11 11 10 9 9
2 1 3 2 2 3 1 3 2 2 5 7 14 15 13 12 3 4 5 4 6 13 10 11 23 13 8 15 10 9 15 18 18 17 16 14 13 13 13 14 14 13 12 11 10 9 9 8 8 10 12 12 12 12 11 11 10 9 9 9 8 8 7 6 6 5 6 6 5 5 5 6 5 5 4 3 1 0 1 1 1 2 3 4 4 3 4 7 9 8 9 11 11 12 11 10 9
2 2 2 2 1 2 3 4 1 3 7 10 18 16 8 12 12 7 4 3 4 10 14 12 23 24 14 14 11 8 12 18 18 18 17 16 15 14 15 16 15 14 13 12 10 9 9 8 6 7 9 9 10 10 10 11 10 10 10 9 9 8 8 7 6 5 6 6 5 5 5 6 6 6 6 4 3 2 1 1 1 2 3 3 4 3 3 5 9 8 9 10 11 11 11 10 10
3 2 2 2 1 4 4 6 4 1 6 9 16 18 6 7 16 11 5 2 3 7 14 13 18 26 21 16 14 10 11 18 19 19 19 18 18 17 17 17 16 15 13 11 9 8 8 7 6 5 5 6 8 9 10 10 11 11 11 11 10 9 8 8 7 6 7 6 5 5 5 5 5 6 6 5 4 3 2 1 1 2 3 4 4 4 2 4 7 8 8 9 10 11 11 10 9
4 2 1 3 4 6 6 7 6 4 8 11 16 20 7 7 12 8 5 5 3 3 8 11 15 22 25 23 19 13 11 18 20 20 20 19 19 18 18 18 17 15 13 11 9 8 8 7 6 5 5 5 7 8 10 10 11 13 12 12 11 10 10 10 9 7 7 6 6 6 5 5 5 5 6 6 5 4 3 2 2 2 4 5 5 5 4 4 5 6 7 8 9 9 10 10 9
4 2 1 5 6 5 8 10 11 12 13 10 14 17 9 12 12 4 4 5 3 5 7 8 14 21 25 27 25 19 14 17 21 21 20 19 18 17 16 16 16 15 13 11 9 9 8 7 6 6 6 7 7 8 9 10 12 14 14 13 12 12 12 12 10 9 9 8 8 7 6 5 6 5 6 6 6 6 5 4 3 3 5 6 6 6 5 4 5 6 7 8 8 8 8 9 9
2 4 4 7 4 4 13 15 17 20 15 11 14 13 12 15 9 5 4 3 4 8 10 9 13 18 20 26 29 24 18 18 22 22 21 19 17 15 15 14 13 13 12 9 8 8 8 7 7 7 7 8 9 9 9 10 12 14 15 14 13 13 14 13 11 10 10 9 9 9 7 6 6 6 6 6 7 7 7 6 5 6 6 6 7 7 6 6 6 6 8 8 8 8 7 8 10
2 5 10 12 6 5 17 20 18 20 15 13 12 10 13 12 7 8 6 4 7 10 12 12 13 16 16 21 26 27 22 19 23 24 22 19 15 14 13 12 11 10 8 6 6 7 8 8 8 9 10 10 10 11 10 11 12 13 15 15 14 14 14 14 14 12 10 10 10 10 9 7 7 6 6 6 7 7 7 7 7 7 7 6 7 8 7 7 7 7 8 9 9 9 8 8 10
3 7 10 12 8 7 20 24 21 20 13 12 10 9 12 9 8 7 8 11 14 18 18 17 17 15 16 18 22 27 23 20 23 23 21 17 15 13 12 10 8 7 6 5 6 7 9 10 10 11 11 11 11 12 11 11 13 14 15 16 15 15 15 15 15 13 11 11 11 11 10 9 8 7 7 6 6 7 7 7 8 8 8 7 7 7 7 7 7 8 9 10 10 10 9 8 10
5 5 6 10 11 13 24 28 28 23 15 16 14 11 9 6 6 5 9 15 17 18 18 19 18 13 15 17 21 25 23 21 22 22 19 16 13 12 10 7 6 6 5 4 6 9 11 11 13 13 12 12 10 10 10 11 12 14 15 16 17 15 15 15 15 14 12 12 12 12 11 10 10 9 8 7 6 6 6 7 8 9 9 8 8 8 8 8 8 9 10 11 12 12 11 10 10
5 4 8 13 16 21 29 29 27 23 15 14 12 8 6 7 6 5 9 15 17 19 20 21 18 12 15 16 19 23 23 21 21 20 17 14 11 8 6 6 5 5 2 3 8 12 13 12 12 13 12 11 10 9 10 10 12 13 15 16 17 16 16 15 14 14 13 13 13 13 13 12 11 11 10 9 8 7 6 7 7 8 9 9 9 9 9 9 9 10 10 11 12 14 14 12 12
3 4 12 14 19 25 28 25 22 18 11 6 5 4 4 4 3 6 8 16 19 21 20 20 17 12 15 16 17 21 21 20 19 17 15 11 9 6 5 7 5 2 5 13 19 19 17 15 10 7 7 8 7 7 10 12 13 13 14 15 16 17 16 15 14 14 14 14 14 14 14 14 12 12 11 11 10 9 8 8 8 9 9 10 10 10 10 10 11 11 11 11 11 14 16 15 15
7 12 16 14 18 22 18 16 17 14 8 3 4 4 2 3 1 3 12 21 22 21 17 15 12 8 9 10 11 14 14 14 13 13 13 9 8 8 7 6 3 2 9 16 18 14 9 9 6 2 3 4 3 3 8 10 11 11 11 13 15 16 15 15 14 14 14 14 14 15 15 14 13 12 12 12 12 11 10 10 9 9 10 10 11 11 11 11 12 13 13 12 12 13 15 17 17
13 14 13 11 15 16 12 11 16 12 8 11 5 3 2 1 2 6 19 24 21 17 12 9 5 4 2 2 6 8 10 10 10 12 12 8 7 7 6 4 2 2 5 9 8 5 3 1 2 7 8 9 6 4 5 9 9 8 8 9 11 13 14 14 14 13 13 13 13 14 15 15 14 13 13 13 13 12 12 11 11 10 10 10 11 12 12 13 13 14 14 13 14 14 14 16 17
13 8 5 9 11 10 13 13 16 11 7 15 9 2 7 3 4 15 25 22 14 10 9 9 9 10 11 11 12 12 10 9 10 12 13 11 7 4 4 3 2 2 2 4 4 3 2 7 10 11 10 11 10 8 5 6 9 9 9 9 9 11 13 13 12 12 12 13 13 14 15 16 16 14 13 13 13 13 13 13 12 12 11 11 12 12 12 13 14 15 15 14 15 16 14 15 16
8 4 2 5 7 6 13 13 16 12 7 15 8 1 8 5 7 25 25 15 8 14 18 18 18 19 19 18 18 16 12 8 9 11 11 11 7 4 3 2 1 2 1 1 3 4 5 8 11 12 11 11 12 11 9 9 8 8 9 10 10 11 12 12 12 12 12 12 13 14 14 15 16 15 14 14 13 13 13 13 13 12 11 11 11 12 13 14 15 16 16 15 16 17 15 14 15
2 3 3 3 5 5 12 10 11 11 7 15 9 2 7 5 14 29 20 11 17 23 24 26 27 26 27 26 26 24 19 13 10 10 9 8 6 4 2 2 2 2 0 2 2 3 5 8 10 11 12 11 11 12 12 12 10 9 10 11 11 11 12 12 12 12 12 12 13 13 13 13 14 15 14 14 13 13 12 12 12 12 11 11 12 12 14 15 16 16 17 17 17 18 17 16 16
2 4 4 3 4 5 12 8 7 6 6 13 11 1 6 5 18 27 18 18 26 27 26 29 30 30 33 33 34 33 29 22 16 14 11 9 6 3 2 3 3 4 2 2 2 4 7 8 9 10 11 12 11 11 11 12 12 11 12 12 10 10 11 11 12 13 12 12 12 12 12 12 13 14 14 14 14 13 12 11 11 11 11 12 12 12 13 15 17 18 18 19 19 19 19 18 18
3 4 2 3 4 4 7 7 7 6 4 9 10 2 5 6 16 24 20 22 30 28 24 28 29 31 35 35 37 38 36 32 25 20 16 12 9 7 6 6 6 6 5 2 1 3 6 6 8 9 9 10 10 9 8 8 10 10 10 10 8 9 10 11 11 12 12 12 13 12 11 12 12 13 13 14 14 13 12 11 11 11 12 13 13 13 13 15 17 19 20 21 21 21 20 20 19
4 4 2 2 2 2 4 6 8 9 6 8 9 6 6 6 12 24 23 22 29 26 22 25 26 29 33 35 38 39 39 37 31 24 19 15 11 10 10 10 9 9 8 6 4 4 3 4 6 7 8 8 7 6 4 5 6 7 8 8 8 7 8 10 11 12 12 12 13 12 12 11 11 12 12 13 14 14 13 12 11 11 13 14 15 16 15 14 17 19 21 22 22 22 21 20 19
3 3 2 3 2 2 3 5 7 10 11 9 10 9 9 8 11 21 23 23 26 24 21 23 24 26 30 33 35 37 39 37 32 28 23 18 15 14 13 12 11 9 9 7 5 4 2 2 2 5 7 8 8 6 4 4 4 5 6 9 9 9 9 10 10 11 12 13 13 13 13 12 12 12 12 13 13 14 14 13 12 11 13 15 17 17 16 15 16 18 20 22 22 22 21 19 19
5 4 2 3 4 4 5 5 6 6 11 11 10 9 8 10 10 14 20 23 25 23 21 22 22 24 28 30 30 34 39 36 32 31 26 22 19 17 15 13 11 9 8 6 2 1 2 1 0 1 4 6 7 6 4 3 4 6 5 6 7 9 11 13 14 14 14 13 13 13 14 14 13 13 13 13 14 15 15 14 13 13 13 15 17 17 16 15 16 17 18 20 21 22 22 21 20
4 2 2 2 2 4 5 4 7 2 8 7 7 10 10 10 9 11 17 22 23 21 20 21 20 22 25 27 28 32 36 34 32 31 28 24 21 19 18 16 13 12 10 8 6 6 5 4 3 1 1 3 3 4 2 1 3 5 5 6 8 10 11 13 14 15 15 14 14 15 15 14 14 14 13 14 15 16 16 15 15 14 15 15 15 15 14 14 16 16 17 19 19 20 22 22 21
2 2 1 2 2 4 6 3 7 2 8 3 5 12 11 9 10 12 16 18 18 17 16 17 18 21 24 26 29 31 32 33 33 32 28 25 23 22 21 20 17 15 14 12 11 11 10 10 9 7 4 2 1 2 3 3 5 6 7 9 11 13 13 13 13 12 12 13 16 18 16 14 14 14 14 15 16 17 18 17 16 16 16 16 14 13 13 14 16 17 17 18 18 19 21 21 20
2 2 2 1 2 3 6 4 4 3 7 0 3 11 8 9 12 14 17 17 16 18 17 17 17 19 22 25 28 31 32 34 34 33 31 28 26 25 24 23 22 20 20 18 18 17 17 17 16 14 11 8 5 2 2 5 7 8 11 12 13 13 13 13 13 11 10 11 13 14 13 14 15 15 15 16 17 18 19 18 18 18 17 17 15 13 13 14 16 17 17 17 17 19 20 21 20
3 3 3 2 3 1 3 4 5 5 6 6 7 9 5 7 11 12 15 16 17 18 19 19 19 20 21 23 27 30 31 32 33 33 32 30 28 27 26 26 25 24 23 22 21 21 21 20 19 18 16 14 13 10 8 6 5 6 9 10 10 10 10 11 11 9 8 9 11 12 12 12 13 15 15 15 17 19 20 19 19 19 19 19 18 16 14 15 16 17 17 18 18 20 20 20 20
1 2 5 3 4 3 5 2 4 6 4 7 8 7 3 3 7 7 9 12 13 14 16 18 19 20 22 25 27 29 30 31 32 32 31 30 28 27 26 25 24 24 23 23 22 21 21 20 20 19 18 18 17 16 15 13 12 10 9 8 8 8 8 8 9 8 7 8 11 13 14 14 14 15 16 16 16 17 19 20 19 18 19 21 20 18 16 15 17 18 18 19 20 21 20 19 20
3 3 6 7 6 6 5 2 4 5 0 3 4 5 3 2 5 6 4 6 8 10 11 13 14 17 22 25 26 27 29 30 30 30 29 28 27 26 25 23 23 23 22 21 19 19 18 18 17 17 17 17 17 17 17 17 17 16 16 15 14 13 11 9 9 8 8 8 10 12 14 14 16 17 18 18 18 18 18 19 20 19 18 20 21 20 18 16 17 18 18 18 20 21 20 20 22
1 4 7 6 5 4 4 2 2 2 3 4 3 5 2 2 2 6 5 4 4 6 7 8 10 14 18 21 22 24 27 26 26 25 25 24 24 23 22 21 20 19 18 16 14 14 13 13 13 13 14 14 15 15 14 14 15 16 16 16 16 16 14 12 11 10 9 9 10 10 11 12 15 17 18 19 19 20 20 20 21 21 20 19 19 20 19 17 17 18 18 18 19 21 22 23 23
2 4 5 4 3 4 4 3 3 3 3 2 3 5 4 2 3 6 8 5 3 3 3 4 6 10 13 16 19 21 22 22 22 21 21 20 19 18 18 16 15 14 13 12 11 12 12 12 12 12 13 14 14 15 15 15 15 14 14 14 14 13 13 13 13 12 10 10 10 9 9 10 11 14 15 16 17 18 20 21 22 21 21 20 20 19 18 17 17 18 19 19 19 21 24 25 23
5 5 2 2 2 2 3 5 4 1 0 3 4 3 4 2 3 6 7 5 3 3 3 2 4 8 11 14 16 18 19 18 18 18 18 17 15 14 13 12 12 12 11 11 13 14 14 15 15 15 15 15 15 16 17 17 18 16 14 14 13 12 12 12 13 14 14 14 13 12 10 10 9 10 12 13 14 14 15 18 20 21 21 21 22 22 20 18 18 19 20 20 20 21 23 24 24
6 2 2 2 3 3 1 4 3 2 2 4 6 1 4 2 4 6 5 5 6 6 5 5 7 9 11 13 15 15 16 16 16 16 15 14 13 12 11 11 11 11 12 12 13 14 15 15 15 15 16 15 15 16 16 17 19 18 17 15 15 14 14 14 15 16 17 18 19 17 15 14 12 11 10 10 10 11 11 13 15 18 20 21 22 22 22 21 19 19 20 21 21 21 23 24 24
3 4 4 3 4 4 3 2 3 2 2 6 6 1 4 2 5 8 5 4 9 9 6 7 9 10 11 12 13 14 14 13 13 13 13 12 11 10 9 9 10 10 11 12 13 14 14 14 14 15 15 14 14 14 14 15 16 17 18 17 17 18 18 18 18 19 20 21 22 22 21 19 16 13 12 11 11 11 11 12 13 15 17 20 22 22 22 23 21 20 20 22 22 22 23 24 25
3 5 3 4 5 4 4 5 3 2 4 6 4 1 3 3 5 8 6 3 10 12 9 9 9 12 13 12 12 12 12 11 11 10 10 9 8 7 6 7 8 10 11 12 13 14 14 14 15 14 13 11 10 11 11 11 12 13 14 15 16 17 18 19 19 19 21 22 23 24 24 23 21 18 15 14 13 13 13 14 15 15 16 18 21 24 25 25 24 23 22 22 23 23 24 24 25
6 4 5 4 4 4 2 3 1 2 5 3 3 4 1 5 5 5 6 5 8 9 11 14 14 15 15 13 12 11 10 9 9 8 7 6 5 4 4 6 8 9 10 11 13 14 15 14 13 12 11 9 9 10 10 10 11 12 13 14 15 16 17 18 19 19 19 21 22 24 25 26 25 22 19 18 17 16 15 14 15 16 17 17 19 23 26 27 26 26 25 24 24 24 24 25 26
5 2 3 2 2 3 2 3 2 3 4 3 2 3 2 4 3 2 3 5 9 12 16 20 20 18 16 14 12 11 10 9 8 6 5 3 1 2 3 5 6 7 9 11 13 12 11 9 9 9 10 11 13 13 13 12 12 13 14 15 16 18 19 20 21 21 21 21 22 23 24 26 26 25 22 20 20 19 18 17 16 17 18 18 20 21 24 27 28 27 27 26 25 24 24 25 26
3 2 3 2 4 3 3 3 2 3 3 4 3 2 2 3 3 4 1 6 11 16 19 20 19 18 15 14 13 12 10 9 6 4 3 2 3 3 4 5 6 8 11 12 10 9 7 6 7 9 11 13 15 15 15 14 13 14 16 17 19 20 20 21 22 23 24 23 23 24 24 25 27 27 26 23 20 20 21 21 19 18 19 19 20 21 23 25 27 28 28 27 27 26 25 25 26
3 2 3 1 3 4 2 3 3 2 2 4 2 2 3 3 3 3 3 6 9 13 15 16 17 17 15 14 14 13 10 8 6 6 6 6 6 6 6 6 8 10 11 11 10 8 6 5 7 9 11 12 14 15 16 16 16 16 17 18 20 21 22 23 23 24 25 26 26 26 26 27 28 29 29 27 24 21 21 23 23 22 21 21 21 21 23 24 25 27 29 29 28 27 27 27 27
2 1 1 3 3 6 3 2 1 3 0 4 1 2 3 2 2 1 5 5 6 8 11 14 16 16 15 15 15 13 11 10 9 9 9 9 9 8 7 9 11 12 12 12 11 10 9 8 9 10 10 11 11 13 15 18 19 19 20 21 22 23 24 25 25 26 26 26 28 28 29 29 29 31 31 31 29 25 22 22 24 24 23 23 24 23 23 25 25 26 28 30 30 29 28 28 29
2 1 4 2 2 4 3 1 3 2 2 4 1 3 3 2 2 1 4 6 8 8 9 12 16 17 16 17 16 14 12 11 11 12 12 12 12 10 10 12 13 14 14 14 14 13 12 12 12 12 12 12 13 13 14 17 19 21 22 23 24 25 26 27 28 29 28 28 28 29 30 31 31 32 33 33 33 31 27 23 23 24 24 24 25 26 25 25 26 26 27 29 31 30 29 29 30
3 2 2 2 2 1 1 1 1 1 2 4 3 3 3 3 4 5 8 11 13 12 10 10 13 16 18 19 17 14 12 12 13 13 13 13 12 11 13 15 16 16 16 16 16 16 16 15 15 15 14 14 15 15 16 18 20 22 24 24 25 26 27 28 29 30 30 30 30 30 31 32 32 32 33 34 35 34 32 28 25 23 24 24 25 27 27 26 26 28 28 29 31 31 31 31 30
3 2 2 2 2 4 1 1 3 2 2 3 4 4 3 5 6 10 14 16 15 14 12 11 13 18 22 21 18 14 11 11 12 13 14 15 14 14 15 17 19 20 20 20 19 19 19 19 19 18 18 17 17 17 19 21 23 24 26 26 27 28 28 29 30 31 32 32 32 32 32 32 33 33 33 33 35 35 35 32 29 26 24 24 24 26 29 29 28 28 29 30 31 32 33 32 30
2 2 2 3 1 0 1 1 2 3 2 2 2 4 5 5 3 9 14 14 14 16 13 11 14 21 23 22 18 14 10 10 11 12 14 17 18 18 17 18 21 22 23 23 22 22 22 22 22 21 21 20 19 19 21 24 25 26 28 29 30 31 32 32 32 33 34 34 34 34 33 33 32 32 32 33 33 35 36 35 33 29 26 24 24 25 28 30 31 30 30 31 31 31 33 34 32
4 3 2 2 1 1 0 3 2 1 2 4 3 4 7 5 2 4 9 9 12 16 14 11 16 22 22 20 17 12 10 11 11 12 15 17 20 21 18 18 20 22 23 24 24 25 25 25 24 24 23 22 22 23 25 26 27 27 29 30 31 32 33 34 34 34 34 34 35 34 34 33 31 29 30 32 32 32 34 36 36 33 28 26 25 25 27 30 33 33 32 32 32 32 33 35 36
Wind_Direction
319 322 326 330 336 338 338 340 335 345 61 152 260 196 249 235 242 276 279 257 218 272 221 222 173 162 154 260 216 210 196 174 173 155 223 219 157 167 174 174 165 164 171 179 184 178 174 178 183 183 183 186 189 194 197 197 197 198 199 201 204 209 214 218 221 221 223 227 231 236 241 244 254 271 273 261 247 208 166 150 166 192 187 183 188 182 177 176 176 173 174 175 170 164 159 154 153
316 320 327 333 339 340 331 8 37 339 29 344 281 188 255 292 269 243 250 230 215 334 219 216 195 184 199 286 216 213 239 214 198 205 256 165 158 169 166 161 157 162 167 172 179 176 177 180 183 185 184 186 189 194 198 199 200 200 201 201 204 210 215 218 218 218 220 222 227 234 241 251 264 281 279 275 255 181 155 153 170 185 184 186 182 170 166 167 171 176 175 166 158 153 154 157 161
315 319 334 335 333 338 340 19 58 40 27 321 283 234 265 308 238 238 237 237 261 347 178 192 188 195 209 302 200 187 231 229 208 213 203 166 170 172 167 164 159 159 165 169 174 175 177 180 182 183 185 187 190 195 198 200 200 200 202 203 204 209 216 215 212 213 217 215 215 223 238 260 275 288 275 263 218 167 157 163 174 172 164 160 154 150 154 165 173 170 158 149 147 149 152 156 163
323 335 351 344 327 354 50 38 109 113 357 271 278 266 233 235 246 257 256 264 284 282 164 158 167 198 209 251 217 196 227 216 193 193 182 170 166 172 176 170 169 166 164 168 174 176 178 180 180 181 185 187 191 195 198 198 197 198 200 202 204 209 214 212 210 212 213 209 205 212 229 257 266 259 240 219 159 136 150 159 164 156 140 132 141 146 154 169 167 155 145 142 145 149 149 152 164
349 2 358 352 343 17 87 62 94 110 246 199 243 272 232 230 251 270 276 295 306 216 167 152 174 200 215 249 223 192 201 187 177 174 169 167 161 167 176 172 171 167 164 168 173 177 178 180 180 181 185 188 191 195 197 195 193 196 197 201 203 208 213 212 212 211 210 207 202 209 217 224 194 193 198 177 73 75 128 142 142 141 127 131 145 147 160 171 155 146 141 142 150 151 148 154 169
3 7 360 9 49 92 113 74 259 230 240 179 196 267 256 245 242 268 291 315 315 190 174 171 230 207 236 253 226 230 181 174 173 170 164 161 161 164 171 173 168 165 167 168 171 177 177 179 180 181 185 188 192 193 195 193 192 194 196 200 201 206 211 212 210 208 211 208 204 209 210 204 180 180 167 129 46 38 66 120 138 138 130 136 147 154 168 164 147 145 145 151 158 154 153 162 176
3 356 348 23 50 39 107 197 241 245 243 179 188 252 262 262 249 277 311 332 317 189 193 218 235 172 269 248 227 224 200 204 181 169 167 165 166 163 167 171 167 167 167 171 174 176 178 178 180 182 185 189 192 193 194 191 191 193 196 199 200 205 207 208 207 207 211 208 203 206 205 203 188 175 129 75 24 19 14 91 141 144 141 142 157 166 168 159 149 150 154 160 165 158 158 171 185
1 347 353 65 31 24 95 233 249 218 244 214 214 240 250 263 260 264 294 216 177 197 208 234 230 173 271 236 221 207 201 214 194 182 176 172 173 166 165 168 166 168 171 174 176 177 180 179 180 183 186 190 192 193 193 191 191 192 195 197 199 204 203 202 202 206 210 204 196 198 201 203 186 157 101 59 24 29 351 273 155 153 153 152 165 175 170 167 161 155 161 169 170 166 167 180 190
352 341 358 59 44 13 30 291 275 224 252 250 242 248 251 260 256 231 238 201 202 207 214 233 220 208 282 229 228 211 200 206 204 201 187 178 178 171 163 164 163 167 172 175 178 179 180 180 181 184 187 191 193 193 193 191 190 189 191 193 196 200 197 195 197 204 204 194 188 190 191 187 171 149 98 51 27 26 8 256 230 172 165 162 168 179 179 172 169 162 169 178 174 179 190 196 198
351 358 38 74 58 7 350 324 306 257 248 247 257 265 266 263 244 221 217 220 211 205 224 228 210 224 271 227 233 215 201 206 205 205 199 190 182 179 165 161 164 168 174 176 180 181 180 182 183 186 191 193 194 193 192 191 190 188 189 190 192 192 190 190 193 198 193 185 181 185 182 172 161 147 118 53 28 19 20 235 227 223 187 178 173 178 189 181 178 180 181 182 179 192 208 212 206
358 22 74 71 38 7 339 316 310 294 278 279 270 280 294 262 207 198 203 238 219 197 209 201 207 226 236 252 237 215 203 207 205 202 204 202 190 185 177 168 169 171 178 177 179 183 181 184 185 189 194 196 196 194 193 191 190 187 186 186 187 186 186 188 190 190 181 178 179 181 175 167 160 148 128 57 29 20 17 236 204 220 214 198 185 182 193 190 185 189 189 184 187 198 204 212 212
354 7 63 78 56 297 256 291 297 298 302 323 313 340 347 230 159 172 194 218 209 195 205 189 201 213 195 294 237 220 209 207 206 204 206 209 200 191 187 181 176 175 181 185 182 183 184 187 188 190 195 199 199 197 197 194 191 187 185 185 184 186 187 187 190 185 175 173 174 175 170 165 162 150 133 60 29 23 12 7 198 221 221 210 204 195 193 194 192 192 194 191 195 202 197 201 209
184 143 81 64 180 188 250 279 284 308 311 312 281 353 15 184 189 217 197 198 183 170 222 207 202 198 196 276 232 223 212 206 207 207 209 212 210 197 192 191 186 183 185 189 187 184 184 188 190 191 196 200 201 200 202 200 196 190 187 187 185 189 190 189 189 181 176 175 176 176 170 167 166 155 138 71 36 25 9 346 201 219 228 224 221 213 202 197 196 196 197 197 200 204 198 197 204
188 165 117 303 228 172 239 282 305 331 305 290 302 330 347 180 217 231 191 186 207 198 230 215 200 195 217 249 239 222 207 204 208 210 213 213 219 207 199 197 194 192 191 194 191 189 187 187 190 192 197 200 202 204 205 206 203 197 193 191 190 194 194 192 190 183 179 179 182 176 167 169 172 167 154 119 44 31 13 334 217 218 233 242 244 228 214 199 197 202 200 197 201 205 205 202 205
239 172 113 101 349 336 239 251 305 303 284 297 324 337 334 336 187 217 192 181 224 217 228 205 194 196 218 212 232 223 207 207 208 211 214 214 223 215 207 204 202 199 196 198 195 195 192 191 192 194 200 201 203 206 209 210 207 202 200 200 199 202 202 198 197 190 184 184 184 172 161 162 174 187 180 189 48 39 19 339 261 241 247 260 271 244 227 203 191 204 206 198 200 206 209 208 209
235 161 74 52 347 333 256 226 318 309 273 300 318 338 342 333 16 194 222 216 236 217 210 187 194 205 221 212 224 230 212 210 209 213 216 215 220 218 214 209 208 206 200 200 198 199 196 198 197 198 205 207 209 210 214 217 213 208 206 211 211 213 215 212 211 200 191 191 188 176 166 164 176 196 194 203 233 297 7 352 314 286 278 279 290 273 245 211 187 200 209 199 201 208 214 212 210
197 147 60 1 320 264 246 213 280 307 280 299 314 336 359 323 336 353 324 234 229 213 210 200 201 210 224 226 231 243 217 209 210 213 215 216 218 219 216 212 211 210 206 202 200 202 200 204 206 205 211 214 219 220 222 225 224 218 214 218 221 224 225 227 227 215 208 201 188 185 185 179 185 198 199 205 227 251 299 345 331 313 291 279 291 295 269 219 195 199 204 199 203 209 216 215 211
160 115 79 312 230 215 198 194 217 242 291 295 305 319 335 309 327 340 343 281 251 222 215 213 213 214 221 237 240 247 223 206 211 214 216 217 217 221 219 215 214 213 212 209 206 207 207 213 219 223 228 230 232 234 234 234 233 229 227 226 226 230 230 235 236 228 225 214 197 203 213 202 199 205 203 205 217 237 261 306 311 310 293 278 285 290 283 232 210 207 205 203 206 208 212 214 212
172 121 70 258 213 219 206 215 237 225 276 285 292 301 301 281 308 325 316 294 263 240 228 218 225 223 221 232 237 242 228 208 212 215 218 219 219 222 221 218 217 216 217 217 218 217 217 226 238 249 263 268 255 246 242 240 240 239 239 235 232 234 234 239 241 239 239 231 220 221 229 223 219 220 207 206 213 224 236 255 265 288 293 283 282 281 272 240 219 219 219 214 211 208 209 211 210
209 168 266 248 219 244 251 251 263 267 274 278 286 292 294 287 289 293 285 285 259 231 237 221 230 235 226 227 233 236 232 214 214 217 219 221 223 226 226 224 221 217 216 220 230 234 238 245 256 269 284 295 283 261 247 242 242 245 248 245 240 239 242 247 246 246 248 246 240 237 241 231 226 229 221 217 218 223 228 241 247 256 275 277 276 274 270 249 227 227 229 225 219 215 212 212 208
215 170 213 247 249 287 275 277 283 286 283 261 274 292 299 297 284 253 259 294 284 238 235 238 243 252 238 228 230 232 232 219 214 217 219 218 222 228 230 231 228 224 219 225 244 253 263 265 270 278 290 304 303 280 258 250 247 247 252 251 248 245 248 253 253 253 252 254 251 247 248 238 232 234 234 234 234 234 235 244 248 249 264 276 276 274 275 265 246 236 235 232 229 227 222 217 210
241 230 237 257 272 277 283 291 291 289 284 262 269 285 285 293 283 255 241 221 264 277 277 276 276 278 259 235 228 227 228 222 216 217 219 217 220 226 230 231 231 231 229 248 280 286 289 287 287 288 293 303 310 302 281 266 259 255 257 257 255 252 252 256 257 257 256 258 257 255 255 250 245 244 242 244 248 252 249 253 257 255 262 273 278 280 281 271 262 250 241 240 239 237 233 223 215
257 267 256 269 271 264 291 298 295 292 276 258 258 263 273 291 302 271 232 236 272 299 304 299 296 284 265 247 228 222 221 220 220 215 213 212 215 223 228 228 228 236 247 275 303 310 307 303 298 295 296 299 307 313 303 281 270 265 264 263 261 259 257 259 260 262 260 258 259 259 262 262 258 256 253 253 258 264 266 265 267 266 263 266 269 276 280 274 270 260 249 247 246 245 240 229 220
224 270 281 296 293 281 295 300 301 299 278 268 263 261 275 267 289 289 258 275 296 312 317 318 311 277 252 249 233 222 215 215 214 207 205 204 210 221 227 232 231 234 249 282 315 326 322 312 302 295 292 297 305 314 315 297 281 272 267 266 265 264 262 263 264 265 263 260 261 262 265 266 264 263 262 262 265 267 272 271 271 272 269 266 263 265 272 279 280 271 261 254 250 249 245 238 228
196 242 294 308 306 300 305 308 307 306 296 286 263 242 246 235 255 268 284 313 325 326 326 325 318 279 246 246 236 224 214 208 203 200 202 202 208 220 229 234 230 233 260 18 23 18 3 344 320 298 287 292 301 308 318 307 292 280 269 267 267 267 266 266 267 267 267 264 265 267 269 271 269 270 270 269 269 269 268 264 266 270 270 268 263 262 266 274 279 277 273 263 256 252 248 245 238
206 271 300 306 305 308 314 314 314 318 316 294 236 214 210 224 267 268 315 350 342 331 329 323 316 283 248 243 232 217 204 194 190 192 195 199 204 205 217 225 227 243 73 70 54 39 24 18 12 340 311 295 297 307 322 311 293 284 274 270 269 269 268 269 269 267 268 267 267 271 273 276 275 274 275 274 273 274 269 261 259 263 266 267 266 265 264 267 270 272 276 273 266 258 251 247 243
291 302 299 299 301 305 315 315 324 340 350 341 243 237 219 205 200 295 344 356 341 330 332 327 317 287 254 238 213 194 180 168 169 176 182 194 205 201 209 219 217 116 100 87 56 30 19 44 64 6 298 254 266 298 312 307 285 278 276 273 271 271 271 270 270 267 266 266 267 269 272 276 277 275 274 275 275 275 272 266 262 261 263 267 270 270 268 268 268 269 271 272 274 267 255 248 245
299 309 302 309 313 312 333 334 340 5 11 349 314 245 337 46 102 351 347 349 337 331 340 347 344 343 344 138 126 129 135 140 150 163 170 175 187 199 204 200 194 159 126 115 86 89 164 134 262 269 262 241 230 227 285 306 291 280 275 273 272 270 271 271 272 269 266 265 265 265 268 273 276 277 275 275 277 276 275 272 269 266 265 268 272 274 272 269 269 269 270 271 274 271 257 247 246
300 318 313 319 333 341 359 353 347 7 12 350 349 340 346 343 22 360 352 348 343 357 29 44 48 53 65 81 85 91 110 132 150 159 167 166 166 176 172 171 193 208 160 141 110 107 253 295 293 290 285 268 255 232 243 296 295 291 282 274 273 268 267 269 273 275 270 267 267 267 267 270 273 276 277 277 278 276 277 276 273 271 270 270 271 272 270 269 268 268 269 269 271 273 261 245 247
303 343 64 333 352 352 350 350 348 6 20 359 14 49 319 280 4 4 358 358 32 55 63 69 70 74 78 83 87 88 96 116 138 151 161 166 173 169 129 123 166 188 177 94 33 7 319 299 290 289 291 288 283 268 256 260 270 288 288 278 273 271 269 270 273 277 277 271 267 268 268 269 271 274 276 277 278 277 277 278 278 275 271 270 270 270 268 268 268 267 268 266 265 269 262 248 250
323 2 45 19 24 322 324 339 359 12 359 360 38 132 300 291 0 7 14 46 71 64 65 75 78 82 83 84 87 86 88 93 109 132 144 151 166 178 142 111 136 138 68 326 335 331 317 305 295 290 287 288 294 292 282 272 268 275 283 285 278 273 273 273 274 275 278 275 269 267 268 269 270 272 274 276 275 274 274 276 279 279 276 272 270 268 267 268 269 269 268 264 260 261 257 250 251
25 24 351 355 40 315 314 333 19 16 321 5 47 83 308 334 359 13 40 68 75 69 64 74 79 83 85 84 84 85 89 91 94 107 118 125 128 139 141 126 139 134 120 306 299 286 289 294 295 296 295 293 292 293 291 280 276 274 279 287 284 275 273 274 277 277 275 274 270 266 265 265 267 271 273 273 271 268 269 272 274 276 277 276 275 274 270 269 272 273 272 267 261 256 254 249 249
359 45 358 313 21 341 320 333 358 356 320 10 40 40 334 341 360 24 48 66 76 75 67 74 78 82 85 83 83 84 88 90 90 96 105 115 111 104 111 118 131 147 165 214 256 267 280 293 297 300 304 304 298 295 290 282 283 289 293 292 282 274 276 276 276 276 274 271 270 266 263 262 263 267 269 271 270 267 265 267 270 271 273 273 274 271 266 265 268 270 271 269 264 259 258 252 246
321 22 30 273 341 339 319 321 335 3 27 22 30 57 33 347 10 35 45 59 72 71 68 74 76 79 84 85 84 84 86 88 89 95 103 111 112 109 111 116 125 144 168 189 209 229 262 290 303 314 320 319 323 322 307 293 290 300 305 293 278 268 272 276 273 271 268 266 265 263 263 263 264 264 265 269 271 271 269 266 266 267 268 267 264 262 259 259 260 263 266 267 269 267 265 259 247
265 307 334 302 322 300 285 290 318 9 39 37 37 52 37 17 27 40 45 55 65 65 65 69 71 75 81 85 85 84 85 86 90 98 105 110 110 107 108 114 119 133 151 165 195 215 230 250 293 336 336 333 341 351 349 331 309 297 298 290 278 268 268 275 278 275 268 264 263 263 264 265 267 267 265 268 270 272 271 268 263 260 261 262 261 259 257 257 254 255 260 265 272 273 268 260 252
211 229 216 276 310 290 264 257 290 22 51 36 46 63 38 33 33 38 46 54 61 62 61 63 66 72 77 81 83 84 86 87 93 101 105 107 104 103 105 106 109 112 113 119 134 65 346 297 352 18 340 337 344 351 356 338 298 271 277 298 290 280 280 280 281 282 276 267 262 262 267 268 268 270 270 270 269 270 270 268 265 262 262 263 262 261 259 260 256 250 250 256 265 270 266 257 248
184 162 176 257 262 282 276 261 288 4 79 17 35 70 46 40 37 35 49 54 57 57 58 60 61 68 73 77 81 84 87 91 97 101 101 102 100 101 101 99 103 103 93 86 79 58 31 11 20 33 332 330 340 334 323 314 291 259 261 302 304 292 291 287 284 283 279 272 267 268 272 272 269 270 272 275 274 272 271 270 268 267 268 267 266 264 261 263 260 250 243 245 253 261 264 259 249
172 166 229 288 201 253 277 267 297 358 93 5 28 70 49 42 48 43 51 56 53 48 54 59 60 68 73 78 83 86 89 94 98 99 99 100 99 99 99 98 101 98 89 83 77 69 60 54 47 42 31 6 319 282 266 281 295 279 277 289 290 288 288 286 284 284 279 274 275 275 273 272 272 273 274 276 278 276 274 274 272 272 272 269 265 260 256 257 258 254 247 243 247 255 261 262 255
137 142 131 292 237 267 298 290 295 37 95 98 54 77 60 50 59 54 54 59 57 51 55 61 65 71 74 80 85 88 91 93 96 98 99 100 100 99 97 94 93 90 86 82 77 73 69 66 61 55 53 50 48 24 318 296 287 284 286 288 289 292 292 286 280 279 277 276 280 280 276 275 277 278 277 277 277 278 278 278 277 276 276 273 269 261 251 251 256 257 252 246 245 248 252 257 256
123 123 122 252 272 114 299 298 325 9 100 140 105 82 67 57 66 64 61 65 65 60 62 65 69 74 77 84 88 90 92 92 95 98 99 100 99 97 95 92 90 88 84 79 74 70 66 63 60 57 55 52 49 44 32 13 343 319 306 302 301 300 299 295 286 279 276 282 291 295 293 290 287 283 279 278 277 278 279 279 279 277 277 275 273 267 258 253 253 255 254 250 245 242 244 250 254
308 152 152 213 251 212 223 257 1 21 89 135 105 74 24 47 76 74 63 64 62 58 63 66 71 80 86 89 91 93 95 95 97 98 99 99 97 95 93 91 89 86 81 76 71 65 59 56 50 46 43 39 37 32 25 20 14 5 354 343 333 324 320 316 310 298 283 279 284 289 293 295 294 288 283 280 280 281 281 281 280 277 274 273 272 270 266 259 254 251 251 250 247 244 240 243 249
311 233 199 219 229 231 256 321 51 59 255 225 110 79 324 329 95 104 79 60 56 49 55 63 71 84 90 92 94 97 98 98 98 99 99 98 97 95 92 89 85 81 77 72 66 60 53 47 40 32 26 21 17 12 7 3 359 356 354 353 350 347 345 340 335 327 310 291 281 282 287 288 290 291 289 288 286 286 284 283 282 279 274 270 269 268 267 262 256 253 252 251 250 248 242 239 241
318 227 200 210 210 233 277 317 58 103 229 242 118 120 225 275 136 128 112 80 64 47 45 60 77 89 95 98 100 101 101 100 100 99 98 97 96 96 92 88 83 78 72 66 60 53 45 37 29 19 9 1 355 350 346 340 336 333 333 334 334 335 336 336 335 332 325 314 302 293 286 280 282 286 290 293 294 290 286 282 282 281 276 271 266 264 263 264 262 257 254 252 251 249 244 240 236
254 225 168 189 223 257 255 188 180 222 236 312 32 108 136 227 219 154 132 115 89 58 48 63 90 101 104 106 107 106 104 104 103 101 99 99 97 95 92 88 83 76 69 60 50 40 32 24 15 8 359 351 343 337 330 323 317 313 307 305 308 312 318 323 327 328 326 322 317 311 301 288 280 279 280 284 288 289 286 284 283 280 276 275 273 268 264 264 263 257 252 251 249 247 245 243 237
253 243 151 218 220 250 224 164 168 224 47 301 307 82 106 242 222 164 147 138 153 183 185 174 140 129 124 122 118 113 110 108 106 104 103 102 101 97 94 90 82 73 61 49 39 30 24 17 10 4 356 348 341 332 323 314 306 300 294 291 294 301 307 314 323 329 329 327 325 323 320 312 300 289 281 274 271 274 277 279 282 282 279 278 277 275 271 266 262 256 252 251 249 248 246 244 239
272 277 41 54 76 42 63 137 136 69 77 238 253 109 110 237 222 178 172 177 189 191 190 195 177 158 144 135 131 123 117 113 109 108 107 105 104 100 93 84 73 61 52 42 33 25 18 12 6 0 354 347 339 327 313 301 293 290 290 293 297 302 306 308 313 320 325 328 329 331 333 331 326 319 314 309 295 284 281 279 280 283 285 284 280 276 274 271 265 257 253 253 252 249 248 245 242
314 38 33 28 35 25 32 62 93 78 285 244 243 158 123 244 231 190 198 200 176 170 174 193 191 181 167 150 141 134 125 120 116 113 111 108 105 101 89 74 62 52 43 32 24 19 14 9 5 359 351 340 326 311 299 291 290 292 296 301 305 308 309 308 307 308 314 320 323 328 333 336 336 330 326 332 330 318 308 299 291 285 284 285 283 280 278 276 273 267 257 252 251 250 248 246 243
40 61 33 358 343 5 22 355 41 107 262 259 273 322 139 227 240 204 218 197 160 165 172 179 192 193 181 165 155 145 137 132 125 117 113 111 111 104 85 63 47 35 24 17 16 15 12 9 2 351 339 327 313 303 303 305 309 312 312 315 318 320 322 320 317 313 311 314 316 320 324 329 332 331 326 327 329 327 319 312 306 296 286 283 282 282 282 282 280 277 268 257 250 249 249 246 243
35 50 47 24 344 2 9 319 343 214 251 264 328 356 156 228 249 215 208 178 160 167 170 172 183 190 185 177 170 159 151 146 136 127 123 123 119 94 58 33 21 12 7 7 10 8 5 0 351 338 330 334 337 333 328 324 323 326 328 330 331 332 333 332 331 328 322 318 317 317 319 322 326 329 327 322 321 322 318 311 308 304 296 289 283 280 282 283 282 280 276 268 257 249 248 247 244
3 58 87 76 68 36 307 278 296 265 264 272 313 346 302 264 300 287 198 167 160 163 170 176 180 182 182 180 177 173 168 162 155 150 148 143 112 19 1 356 354 353 356 359 359 357 353 352 348 344 350 358 0 358 351 339 331 331 332 333 334 333 333 333 333 333 331 327 323 320 320 320 321 324 324 321 317 316 314 309 301 298 295 290 285 281 279 280 280 279 278 275 267 256 249 248 246
312 173 136 134 140 144 252 239 223 251 285 303 299 296 235 231 302 303 199 143 155 166 175 180 181 182 181 182 187 189 184 176 172 178 197 239 277 297 303 316 329 339 344 342 340 339 341 352 359 1 3 3 1 1 359 352 345 340 337 335 334 333 332 332 331 331 331 330 327 323 320 319 318 319 321 320 316 310 308 307 303 296 292 288 284 281 279 277 277 277 276 276 273 264 256 251 247
280 171 97 24 171 160 191 197 190 195 305 307 285 236 215 193 272 315 86 122 153 171 182 187 191 191 190 196 199 195 193 191 197 217 234 245 255 262 271 300 321 327 326 319 315 318 319 325 335 344 351 354 354 354 352 350 346 341 338 335 334 333 333 332 331 329 327 327 326 324 320 317 315 314 316 318 318 312 303 301 302 300 294 290 286 280 276 274 273 272 271 273 274 269 262 256 251
286 105 188 243 173 132 127 258 338 68 287 281 256 252 294 317 293 8 104 137 174 188 199 203 203 201 201 207 205 201 204 208 216 228 236 243 245 250 271 303 314 310 307 305 302 302 300 301 311 322 330 334 339 341 340 340 338 335 333 332 331 331 331 330 330 328 325 323 322 321 319 316 312 309 309 313 316 317 310 300 296 297 295 292 290 285 276 271 270 270 266 266 269 270 265 258 254
111 215 222 219 109 101 106 264 342 36 239 270 275 237 270 302 271 204 146 183 210 213 213 213 213 211 213 214 208 206 212 219 228 235 240 243 243 254 282 300 302 296 295 297 295 290 291 295 300 306 313 317 322 326 328 329 329 328 327 327 327 326 326 327 327 326 325 322 320 318 316 314 311 307 305 306 309 312 314 308 297 293 292 291 288 287 282 273 267 268 266 262 262 266 265 259 257
118 193 206 116 131 193 56 153 227 274 247 277 304 277 236 214 215 193 189 202 209 210 212 215 218 217 217 217 212 212 219 227 235 241 245 247 250 266 287 295 294 289 288 292 291 286 286 290 293 297 302 307 311 316 321 323 324 324 323 323 323 323 323 323 323 323 323 322 321 318 315 313 310 307 303 300 301 305 309 310 305 295 289 287 285 283 284 280 269 263 264 262 258 260 262 258 255
30 41 14 33 156 175 173 172 176 185 229 267 304 315 265 233 206 184 198 206 200 201 207 211 215 216 218 218 214 214 223 234 243 251 257 261 264 275 287 289 287 284 281 284 286 284 287 290 290 292 296 300 303 309 315 319 320 320 319 319 319 319 319 319 319 319 318 319 319 318 317 314 310 307 304 299 297 299 302 306 306 300 290 284 282 280 279 281 276 266 261 260 257 257 260 258 254
360 28 344 329 339 159 261 245 144 143 186 218 266 288 267 250 208 187 202 207 197 198 202 203 210 215 217 218 215 218 233 249 256 262 270 272 269 269 279 287 285 283 281 280 282 285 288 289 289 290 292 292 293 300 309 314 316 317 316 315 315 315 314 314 313 313 314 315 315 315 316 315 311 307 304 301 296 295 296 300 302 302 295 284 279 277 275 276 279 275 265 258 256 255 256 257 256
158 163 203 214 204 119 210 273 305 74 173 185 182 263 266 259 249 222 219 212 201 199 194 194 207 213 217 216 214 224 250 262 268 272 277 280 274 265 271 286 287 283 282 280 281 284 285 286 288 288 287 286 291 299 305 309 310 311 312 312 312 311 310 309 308 308 309 310 311 312 312 314 312 306 301 300 299 294 292 294 297 299 298 287 276 273 273 272 275 277 272 262 257 253 250 251 252